Location: Newcastle Observatory
(43.9158°N, 78.5831°W)
Time: 05:10:47
(UTC-04:00)

Amateur Radio Satellites - All Passes

Search period start: 02 September 2014 04:40
Search period end: 03 September 2014 04:40
Location: Newcastle Observatory, 43.9158°N, 78.5831°W

Satellite Date Start Highest point End Downlink Frequencies (MHz)
Time Altitude Azimuth
Oscar 16 02 Sep 04:55:54 04:57:05 11° 305° (NW) 04:58:15 437.025 USB, Beacon 2401.1428
ITAMSAT 1 02 Sep 04:56:13 05:00:07 22° 298° (WNW) 05:04:01 435.822 SSB
SO-50 02 Sep 05:04:58 05:08:53 28° 317° (NW) 05:12:55 436.795 FM
Uribyol 2 02 Sep 05:05:57 05:09:19 18° 300° (WNW) 05:12:41 436.500 FM
UOSAT-12 02 Sep 05:09:56 05:14:12 39° 117° (ESE) 05:18:34 437.025 FM, 437.400 FM
TMSAT-1 02 Sep 05:17:35 05:22:26 38° 292° (WNW) 05:27:17 436.925 FM
Uosat F 02 Sep 05:18:09 05:22:59 47° 100° (E) 05:27:47 435.120 FM
JAS-1B 02 Sep 05:22:30 05:27:34 23° 304° (NW) 05:32:09 435.800 - 435.900 CW/SSB
KITSAT 1 02 Sep 05:23:21 05:28:09 16° 15° (NNE) 05:32:56 435.175 FM
AO-27 02 Sep 05:27:22 05:29:29 13° 304° (WNW) 05:31:35 436.795 MHz FM
Saudisat 1A 02 Sep 05:31:46 05:34:19 15° 35° (NE) 05:36:51 436.775 MHz
AO-7 02 Sep 05:31:48 05:40:01 61° 104° (ESE) 05:48:10 29.400 - 29.500 MHz
OPAL 02 Sep 05:57:02 06:00:55 22° 265° (W) 06:04:51 ?
STRAND 1 02 Sep 06:05:47 06:09:51 25° 64° (ENE) 06:13:55 ?
Gurwin Techsat 1B 02 Sep 06:09:52 06:11:41 12° 305° (NW) 06:13:29 435.225 FM
Hamsat 02 Sep 06:22:42 06:26:07 22° 93° (E) 06:29:29 145.90 MHz
JAS-2 02 Sep 06:28:00 06:32:29 27° 95° (E) 06:37:14 435.800 - 435.900 CW/SSB, 435.910 FM
UOSAT-12 02 Sep 06:50:18 06:54:26 31° 316° (NW) 06:58:39 437.025 FM, 437.400 FM
Uosat F 02 Sep 06:57:35 07:01:28 23° 297° (WNW) 07:05:21 435.120 FM
Saudisat 1A 02 Sep 07:10:10 07:14:37 80° 55° (NE) 07:19:01 436.775 MHz
KITSAT 1 02 Sep 07:18:49 07:26:16 38° 43° (NE) 07:33:40 435.175 FM
AO-7 02 Sep 07:25:11 07:32:23 35° 304° (WNW) 07:39:33 29.400 - 29.500 MHz
RS-15 02 Sep 07:25:23 07:35:50 50° 112° (ESE) 07:46:07 29.354 - 29.394 USB, Beacon 29.352 USB
STRAND 1 02 Sep 07:43:55 07:48:46 45° 261° (W) 07:53:40 ?
Hamsat 02 Sep 07:58:11 08:02:10 35° 290° (WNW) 08:06:05 145.90 MHz
JAS-2 02 Sep 08:12:49 08:17:44 41° 291° (WNW) 08:22:59 435.800 - 435.900 CW/SSB, 435.910 FM
SO-67 02 Sep 08:37:05 08:40:32 71° 284° (WNW) 08:43:59 435.3500 MHz FM
Saudisat 1A 02 Sep 08:51:56 08:53:33 12° 252° (WSW) 08:55:10 436.775 MHz
KITSAT 1 02 Sep 09:14:10 09:22:06 61° 245° (WSW) 09:29:58 435.175 FM
RS-15 02 Sep 09:37:23 09:48:07 55° 316° (NW) 09:58:49 29.354 - 29.394 USB, Beacon 29.352 USB
ISS 02 Sep 09:48:22 09:51:16 28° 138° (SE) 09:54:10 145.800 FM
UKube-1 02 Sep 09:57:04 10:00:27 22° 94° (E) 10:03:48 145.840 MHz, 145.915 MHz
Oscar 11 02 Sep 10:00:45 10:03:33 17° 91° (E) 10:06:19 145.825 FM, Beacon 2401.500 USB
HO-68 02 Sep 10:01:48 10:08:46 51° 101° (E) 10:15:41 435.675 MHz FM
SO-50 02 Sep 10:14:50 10:17:06 13° 31° (NNE) 10:19:23 436.795 FM
FUNcube-1 02 Sep 10:33:51 10:36:41 16° 91° (E) 10:39:32 145.950 - 145.970 MHz USB
KITSAT 1 02 Sep 11:14:08 11:15:49 11° 264° (W) 11:17:29 435.175 FM
ISS 02 Sep 11:24:40 11:27:53 46° 335° (NNW) 11:31:07 145.800 FM
UKube-1 02 Sep 11:32:45 11:36:45 36° 291° (WNW) 11:40:44 145.840 MHz, 145.915 MHz
Oscar 11 02 Sep 11:35:47 11:40:00 49° 288° (WNW) 11:44:12 145.825 FM, Beacon 2401.500 USB
HO-68 02 Sep 11:49:56 11:56:13 35° 299° (WNW) 12:02:30 435.675 MHz FM
SO-50 02 Sep 11:53:57 11:58:41 57° 51° (NE) 12:03:27 436.795 FM
RS-15 02 Sep 11:54:53 12:03:39 26° 347° (NNW) 12:12:30 29.354 - 29.394 USB, Beacon 29.352 USB
UOSAT-12 02 Sep 11:59:25 12:01:22 12° 29° (NNE) 12:03:17 437.025 FM, 437.400 FM
FUNcube-1 02 Sep 12:08:56 12:13:24 55° 287° (WNW) 12:17:53 145.950 - 145.970 MHz USB
Oscar 19 02 Sep 12:20:34 12:22:59 13° 57° (ENE) 12:25:23 437.125 CW, 437.150 USB
JAS-1B 02 Sep 12:28:19 12:33:53 18° 52° (NE) 12:39:03 435.800 - 435.900 CW/SSB
Oscar 16 02 Sep 12:53:44 12:57:58 26° 64° (ENE) 13:02:14 437.025 USB, Beacon 2401.1428
MaSat-1 02 Sep 12:56:01 13:00:46 50° 111° (ESE) 13:05:46 437.345 MHz
ITAMSAT 1 02 Sep 12:59:18 13:01:47 14° 57° (ENE) 13:04:16 435.822 SSB
ISS 02 Sep 13:02:32 13:05:11 21° 355° (N) 13:07:50 145.800 FM
Uribyol 2 02 Sep 13:07:36 13:10:51 17° 59° (ENE) 13:14:06 436.500 FM
AO-27 02 Sep 13:27:11 13:31:15 24° 63° (ENE) 13:35:20 436.795 MHz FM
SO-50 02 Sep 13:35:23 13:38:52 20° 249° (WSW) 13:42:22 436.795 FM
UOSAT-12 02 Sep 13:37:59 13:42:38 51° 50° (NE) 13:47:11 437.025 FM, 437.400 FM
Oscar 19 02 Sep 13:56:22 14:01:32 88° 76° (ENE) 14:06:46 437.125 CW, 437.150 USB
AO-Echo 02 Sep 14:01:24 14:06:11 48° 71° (ENE) 14:10:50 ?
Gurwin Techsat 1B 02 Sep 14:11:08 14:15:32 27° 64° (ENE) 14:19:57 435.225 FM
RS-15 02 Sep 14:11:17 14:20:39 31° 23° (NNE) 14:30:13 29.354 - 29.394 USB, Beacon 29.352 USB
JAS-1B 02 Sep 14:13:36 14:23:09 68° 70° (ENE) 14:31:34 435.800 - 435.900 CW/SSB
Oscar 16 02 Sep 14:32:12 14:37:05 43° 262° (W) 14:42:02 437.025 USB, Beacon 2401.1428
MaSat-1 02 Sep 14:33:48 14:38:03 27° 310° (NW) 14:42:24 437.345 MHz
ITAMSAT 1 02 Sep 14:35:21 14:40:31 89° 259° (WSW) 14:45:44 435.822 SSB
ISS 02 Sep 14:39:42 14:42:39 28° 16° (NNE) 14:45:35 145.800 FM
AO-7 02 Sep 14:42:31 14:48:36 23° 50° (NE) 14:54:40 29.400 - 29.500 MHz
Uribyol 2 02 Sep 14:44:37 14:49:45 71° 257° (WSW) 14:54:56 436.500 FM
Uosat F 02 Sep 14:58:34 14:59:47 11° 56° (NE) 15:01:00 435.120 FM
TMSAT-1 02 Sep 14:59:51 15:04:58 53° 71° (ENE) 15:10:07 436.925 FM
AO-27 02 Sep 15:05:30 15:10:28 48° 261° (W) 15:15:29 436.795 MHz FM
UOSAT-12 02 Sep 15:18:52 15:22:26 22° 248° (WSW) 15:25:58 437.025 FM, 437.400 FM
PCSat 02 Sep 15:38:09 15:41:18 16° 104° (ESE) 15:44:27 145.825 MHz
Oscar 19 02 Sep 15:39:50 15:41:35 12° 273° (W) 15:43:21 437.125 CW, 437.150 USB
AO-Echo 02 Sep 15:41:32 15:45:11 20° 267° (W) 15:48:48 ?
Gurwin Techsat 1B 02 Sep 15:50:17 15:55:17 43° 262° (W) 16:00:20 435.225 FM
JAS-1B 02 Sep 16:05:38 16:13:59 33° 266° (W) 16:21:36 435.800 - 435.900 CW/SSB
ISS 02 Sep 16:16:18 16:19:38 73° 214° (SW) 16:22:57 145.800 FM
ITAMSAT 1 02 Sep 16:19:16 16:20:44 11° 273° (W) 16:22:13 435.822 SSB
RS-15 02 Sep 16:24:11 16:35:17 73° 52° (NE) 16:46:46 29.354 - 29.394 USB, Beacon 29.352 USB
OPAL 02 Sep 16:28:03 16:29:30 11° 89° (E) 16:30:57 ?
AO-7 02 Sep 16:31:58 16:40:20 88° 71° (ENE) 16:48:42 29.400 - 29.500 MHz
Uosat F 02 Sep 16:32:43 16:37:42 76° 74° (ENE) 16:42:43 435.120 FM
TMSAT-1 02 Sep 16:41:15 16:45:12 21° 268° (W) 16:49:10 436.925 FM
JAS-2 02 Sep 16:44:27 16:47:24 15° 59° (ENE) 16:50:15 435.800 - 435.900 CW/SSB, 435.910 FM
Sapphire 02 Sep 16:49:36 16:54:53 59° 116° (ESE) 17:00:13 437.095 MHz 1200 baud AX-25 AFSK
Hamsat 02 Sep 17:17:44 17:20:55 20° 65° (ENE) 17:24:06 145.90 MHz
PCSat 02 Sep 17:18:37 17:24:01 77° 302° (WNW) 17:29:29 145.825 MHz
OPAL 02 Sep 18:03:51 18:09:07 86° 107° (ESE) 18:14:19 ?
Uosat F 02 Sep 18:14:41 18:17:03 13° 271° (W) 18:19:26 435.120 FM
JAS-2 02 Sep 18:25:55 18:31:56 87° 256° (WSW) 18:37:22 435.800 - 435.900 CW/SSB, 435.910 FM
AO-7 02 Sep 18:28:21 18:34:06 20° 270° (W) 18:39:54 29.400 - 29.500 MHz
Sapphire 02 Sep 18:34:13 18:38:42 26° 316° (NW) 18:43:12 437.095 MHz 1200 baud AX-25 AFSK
RS-15 02 Sep 18:37:19 18:46:48 35° 254° (WSW) 18:56:38 29.354 - 29.394 USB, Beacon 29.352 USB
Hamsat 02 Sep 18:52:30 18:56:35 41° 262° (W) 19:00:44 145.90 MHz
PCSat 02 Sep 19:04:56 19:08:22 17° 323° (NW) 19:11:49 145.825 MHz
SO-67 02 Sep 19:11:16 19:14:34 43° 73° (ENE) 19:17:53 435.3500 MHz FM
OPAL 02 Sep 19:44:24 19:47:17 15° 305° (NW) 19:50:09 ?
STRAND 1 02 Sep 19:52:47 19:57:48 55° 101° (E) 20:02:48 ?
JAS-2 02 Sep 20:15:51 20:17:40 11° 271° (W) 20:19:26 435.800 - 435.900 CW/SSB, 435.910 FM
HO-68 02 Sep 20:31:47 20:38:27 45° 64° (ENE) 20:45:08 435.675 MHz FM
SO-67 02 Sep 20:46:36 20:47:51 12° 270° (W) 20:49:07 435.3500 MHz FM
UKube-1 02 Sep 20:54:06 20:57:33 24° 65° (ENE) 21:01:02 145.840 MHz, 145.915 MHz
Oscar 11 02 Sep 20:57:37 21:00:22 17° 63° (ENE) 21:03:08 145.825 FM, Beacon 2401.500 USB
MaSat-1 02 Sep 21:13:00 21:16:14 18° 45° (NE) 21:19:12 437.345 MHz
Saudisat 1A 02 Sep 21:19:57 21:22:21 15° 110° (ESE) 21:24:45 436.775 MHz
FUNcube-1 02 Sep 21:32:33 21:34:58 15° 62° (ENE) 21:37:25 145.950 - 145.970 MHz USB
STRAND 1 02 Sep 21:32:52 21:36:36 21° 298° (WNW) 21:40:20 ?
KITSAT 1 02 Sep 21:52:14 21:56:56 17° 100° (E) 22:01:38 435.175 FM
HO-68 02 Sep 22:19:40 22:26:13 38° 263° (W) 22:32:48 435.675 MHz FM
UKube-1 02 Sep 22:29:38 22:33:36 34° 262° (W) 22:37:35 145.840 MHz, 145.915 MHz
Oscar 11 02 Sep 22:31:55 22:36:09 52° 260° (W) 22:40:25 145.825 FM, Beacon 2401.500 USB
MaSat-1 02 Sep 22:49:17 22:53:44 59° 248° (WSW) 22:57:34 437.345 MHz
Saudisat 1A 02 Sep 22:57:01 23:01:24 67° 307° (NW) 23:05:49 436.775 MHz
FUNcube-1 02 Sep 23:06:46 23:10:54 56° 260° (W) 23:15:08 145.950 - 145.970 MHz USB
KITSAT 1 02 Sep 23:42:59 23:51:04 81° 119° (ESE) 23:59:11 435.175 FM
Sapphire 02 Sep 23:54:04 23:57:02 15° 34° (NE) 23:59:59 437.095 MHz 1200 baud AX-25 AFSK
PCSat 03 Sep 00:22:32 00:26:45 22° 42° (NE) 00:30:56 145.825 MHz
Saudisat 1A 03 Sep 00:39:41 00:41:50 13° 327° (NNW) 00:43:59 436.775 MHz
Sapphire 03 Sep 01:36:09 01:41:34 64° 56° (NE) 01:46:57 437.095 MHz 1200 baud AX-25 AFSK
KITSAT 1 03 Sep 01:40:20 01:47:20 31° 322° (NW) 01:54:23 435.175 FM
JAS-1B 03 Sep 02:02:28 02:04:38 12° 82° (E) 02:06:43 435.800 - 435.900 CW/SSB
PCSat 03 Sep 02:05:18 02:10:44 73° 242° (WSW) 02:16:07 145.825 MHz
Oscar 19 03 Sep 02:07:04 02:11:33 28° 95° (E) 02:15:59 437.125 CW, 437.150 USB
AO-Echo 03 Sep 02:08:56 02:10:59 13° 89° (E) 02:13:03 ?
SO-50 03 Sep 02:13:24 02:15:02 12° 107° (ESE) 02:16:42 436.795 FM
Oscar 16 03 Sep 02:42:08 02:47:18 61° 101° (ESE) 02:52:26 437.025 USB, Beacon 2401.1428
ITAMSAT 1 03 Sep 02:47:15 02:51:45 29° 95° (E) 02:56:13 435.822 SSB
Uribyol 2 03 Sep 02:56:06 03:00:55 37° 97° (E) 03:05:42 436.500 FM
TMSAT-1 03 Sep 03:15:12 03:18:53 19° 91° (E) 03:22:31 436.925 FM
AO-27 03 Sep 03:16:51 03:21:57 55° 101° (E) 03:27:02 436.795 MHz FM
Sapphire 03 Sep 03:20:39 03:24:29 20° 254° (WSW) 03:28:17 437.095 MHz 1200 baud AX-25 AFSK
KITSAT 1 03 Sep 03:41:29 03:45:52 15° 351° (N) 03:50:14 435.175 FM
OPAL 03 Sep 03:42:43 03:46:50 25° 61° (ENE) 03:51:00 ?
AO-Echo 03 Sep 03:45:36 03:50:17 71° 286° (WNW) 03:54:59 ?
Oscar 19 03 Sep 03:46:10 03:50:58 38° 292° (WNW) 03:55:43 437.125 CW, 437.150 USB
JAS-1B 03 Sep 03:49:58 03:56:40 87° 105° (ESE) 04:02:30 435.800 - 435.900 CW/SSB
SO-50 03 Sep 03:50:24 03:54:53 82° 305° (NW) 03:59:30 436.795 FM
UOSAT-12 03 Sep 03:55:10 03:55:18 10° 106° (ESE) 03:55:26 437.025 FM, 437.400 FM
Gurwin Techsat 1B 03 Sep 04:04:39 04:09:58 70° 102° (ESE) 04:15:15 435.225 FM
Oscar 16 03 Sep 04:22:33 04:26:11 20° 299° (WNW) 04:29:48 437.025 USB, Beacon 2401.1428
ITAMSAT 1 03 Sep 04:26:32 04:31:18 38° 293° (WNW) 04:36:02 435.822 SSB
